www.pogodaiklimat.ru
ПОГОДА в Кроппефял-Гранане
Время
(UTC), дата
04 24.07
05 24.07
06 24.07
07 24.07
08 24.07
09 24.07
10 24.07
11 24.07
12 24.07
13 24.07
14 24.07
15 24.07
16 24.07
17 24.07
18 24.07
19 24.07
20 24.07
21 24.07
22 24.07
23 24.07
00 25.07
01 25.07
02 25.07
03 25.07
04 25.07
05 25.07
06 25.07
07 25.07
08 25.07
09 25.07
10 25.07
11 25.07
12 25.07
13 25.07
14 25.07
15 25.07
16 25.07
17 25.07
18 25.07
19 25.07
20 25.07
21 25.07
22 25.07
23 25.07
00 26.07
01 26.07
02 26.07
03 26.07
04 26.07
05 26.07
06 26.07
07 26.07
08 26.07
09 26.07
10 26.07
11 26.07
12 26.07
13 26.07
14 26.07
15 26.07
16 26.07
17 26.07
18 26.07
19 26.07
20 26.07
21 26.07
22 26.07
23 26.07
00 27.07
01 27.07
02 27.07
03 27.07
05 27.07
06 27.07
07 27.07
08 27.07
09 27.07
10 27.07
11 27.07
12 27.07
13 27.07
14 27.07
15 27.07
16 27.07
17 27.07
18 27.07
19 27.07
20 27.07
21 27.07
22 27.07
23 27.07
00 28.07
01 28.07
02 28.07
03 28.07
04 28.07
05 28.07
06 28.07
07 28.07
08 28.07
09 28.07
10 28.07
11 28.07
12 28.07
13 28.07
14 28.07
15 28.07
16 28.07
17 28.07
18 28.07
19 28.07
20 28.07
21 28.07
22 28.07
23 28.07
00 29.07
01 29.07
02 29.07
03 29.07
04 29.07
05 29.07
06 29.07
07 29.07
08 29.07
09 29.07
10 29.07
11 29.07
12 29.07
13 29.07
14 29.07
15 29.07
16 29.07
17 29.07
18 29.07
19 29.07
20 29.07
21 29.07
22 29.07
23 29.07
00 30.07
01 30.07
02 30.07
03 30.07
04 30.07
05 30.07
06 30.07
07 30.07
08 30.07
09 30.07
10 30.07
11 30.07
12 30.07
13 30.07
14 30.07
15 30.07
16 30.07
17 30.07
18 30.07
19 30.07
20 30.07
21 30.07
22 30.07
23 30.07
00 31.07
01 31.07
02 31.07
03 31.07
04 31.07
Ветер
(напр.,м/с)
Видим. Явления Облачность Т
(С)
Тd
(С)
f
(%)
Тe
(С)
Тes
(С)
Комфортность P
(гПа)
Po
(гПа)
Тmin
(С)
Tmax
(С)
R
(мм)
R24
(мм)
S
(см)
штиль 0 40 км ясно +12.4 +9.2 81
штиль 0
{1}
40 км ясно +15.9 +10.6 71
В 1
{3}
30 км ясно +17.9 +11.7 67 +10.7 +20.1
В 1
{4}
30 км ясно +19.9 +11.2 57
В 1
{4}
22 км ясно +21.3 +13.2 60
СВ 2
{5}
35 км ясно +22.1 +12.5 54
В 2
{6}
30 км ясно +22.7 +10.0 44
В 2
{6}
30 км ясно +23.1 +9.7 43
В 2
{7}
40 км ясно +24.0 +9.8 41
СВ 1
{5}
27 км ясно +25.0 +10.8 41
В 2
{5}
27 км ясно +25.1 +12.2 45
СВ 1
{5}
29 км ясно +25.2 +12.7 46
В 1
{6}
30 км ясно +24.4 +12.1 46
СВ 1
{4}
30 км ясно +23.4 +11.9 48
СВ 1
{4}
40 км ясно +22.0 +11.6 52 +17.9 +25.3
СВ 1
{4}
45 км ясно +19.8 +11.2 58
СВ 1
{3}
40 км ясно +18.4 +10.8 61
СВ 1
{4}
45 км ясно +18.5 +11.9 65
СВ 1
{4}
45 км ясно +17.6 +13.1 75
штиль 0
{3}
40 км ясно +16.7 +13.6 82
штиль 0
{3}
40 км ясно +17.6 +14.0 79
штиль 0
{2}
30 км ясно +16.2 +13.9 86
штиль 0
{1}
15 км ясно +14.7 +13.7 94
штиль 0
{1}
15 км ясно +14.2 +13.5 96
штиль 0
{1}
19 км 6/6 1500 м +14.4 +13.8 96
штиль 0
{1}
30 км 3/3 1500 м +16.7 +14.7 88
штиль 0
{2}
30 км ясно +18.6 +14.9 79 +14.0
В 1
{3}
27 км ясно +20.7 +14.9 69
В 1
{5}
29 км ясно +22.8 +15.8 65
В 2
{5}
30 км ясно +23.0 +14.2 58
В 2
{5}
35 км 1/1 1200 м +24.0 +12.2 48
В 2
{6}
28 км 4/4 1020 м +25.5 +15.0 52
В 1
{6}
30 км 1/1 1320 м +26.2 +10.9 38
В 1
{6}
30 км ясно +26.4 +9.7 35
В 1
{5}
28 км ясно +26.6 +7.0 29
В 2
{6}
30 км ясно +25.7 +9.5 36
В 2
{6}
35 км ясно +25.1 +8.8 36
В 1
{5}
40 км ясно +23.4 +11.8 48
СВ 1
{4}
40 км 3/0 +22.4 +11.5 50 +18.6 +27.2
В 1
{4}
50 км 1/0 +20.8 +12.7 60
СВ 1
{3}
50 км 9/0 +19.1 +13.1 68
штиль 0
{2}
50 км 9/0 +17.9 +13.0 73
штиль 0
{1}
50 км 9/0 +16.8 +12.6 76
штиль 0
{2}
50 км 8/0 +15.8 +12.3 80
штиль 0
{1}
45 км 10/0 +15.1 +12.5 84
штиль 0
{1}
45 км 9/0 +14.7 +12.3 86
штиль 0
{2}
45 км 9/0 +13.7 +12.0 89
штиль 0
{3}
45 км 3/0 +13.9 +12.3 90
В 1
{3}
45 км 5/0 +14.4 +12.7 90
штиль 0
{3}
35 км 1/0 +16.7 +14.4 86
В 1
{3}
30 км 1/1 1500 м +18.2 +14.8 81 +13.4 +22.4
В 1
{5}
30 км 5/5 1500 м +20.4 +14.6 69
СВ 2
{7}
40 км 6/6 1500 м +21.4 +15.5 69
СВ 2
{6}
30 км 4/0 +22.1 +15.0 64
СВ 2
{7}
29 км 6/6 1500 м +21.2 +15.5 70
В 3
{7}
28 км ясно +21.7 +16.4 72
В 2
{7}
29 км 6/6 1500 м +22.2 +16.7 71
В 2
{7}
28 км 1/0 +23.5 +16.8 66
В 2
{8}
30 км 8/0 +21.5 +16.3 72
СВ 2
{7}
30 км в посл. час дождь {ливн. дождь} 9/0 +21.0 +14.8 68 1
СВ 2
{6}
30 км {ливн. дождь, дождь} 9/0 +21.0 +15.1 69
В 1
{7}
30 км {ливн. дождь, дождь} 9/0 +20.4 +15.8 75
штиль 0
{5}
24 км в посл. час дождь {ливн. дождь} 9/9 840 м +19.5 +16.1 81 +18.2 +24.2 0.1
штиль 0
{3}
30 км слаб. ливневой дождь {метель} 8/8 1440 м +18.4 +14.6 79 0.1
В 1
{3}
16 км в посл. час дождь {ливн. дождь, метель} 10/0 +16.0 +15.1 94 0.9
В 1
{3}
8000 м дымка {ливн. дождь} 9/0 +15.6 +15.1 97
СВ 1
{4}
9000 м слаб. дождь 10/0 +15.8 +15.2 96 0.1
СВ 1
{4}
6000 м в посл. час дождь {ливн. дождь} 10/10 1500 м +16.7 +16.3 97 0.2
В 1
{5}
9000 м дымка {ливн. дождь, дождь} 10/0 +17.2 +16.8 97
В 1
{4}
7000 м дымка 9/0 +17.0 +16.6 97
штиль 0
{3}
3200 м дымка 9/0 2000 м +16.9 +16.6 98
штиль 0
{2}
5000 м слаб. дождь 5/5 1500 м +16.5 +16.1 97 0.1
штиль 0
{1}
2900 м в посл. час дождь {метель} 9/9 1410 м +16.4 +16.1 98 0.6
СВ 2
{6}
3400 м дождь {метель} 10/10 1440 м +16.7 +16.4 98 +15.5 0.7
В 1
{7}
1900 м ливневой дождь 10/10 60 м +17.2 +17.0 99 1
СВ 2
{6}
2100 м сильн. дождь {ливн. дождь} 10/10 60 м +17.2 +17.0 99 10
СВ 2
{6}
2900 м в посл. час дождь {ливн. дождь} 10/10 60 м +17.4 +17.2 99 2
В 1
{5}
8000 м дымка {ливн. дождь, дождь} 10/10 120 м +18.6 +18.4 99
В 1
{5}
11 км {ливн. дождь, дождь} 10/10 180 м +18.4 +17.9 97
СВ 1
{6}
16 км {ливн. дождь, дождь} 9/9 210 м +19.5 +18.3 93
В 1
{4}
6000 м слаб. дождь 9/9 180 м +18.6 +18.2 98 0.6
штиль 0
{4}
2300 м ливневой дождь 10/10 90 м +17.8 +17.5 98 2
В 1
{3}
11 км в посл. час дождь {ливн. дождь} 6/6 60 м +19.8 +19.3 97 0.2
штиль 0
{3}
н/о {ливн. дождь, дождь} 6/6 120 м +19.7 +18.8 95
штиль 0
{2}
10 км {ливн. дождь, дождь} 5/0 +20.1 +19.1 94
З 1
{2}
12 км {ливн. дождь, дождь} 6/0 +19.8 +18.8 94 +20.3
штиль 0
{2}
1000 м туман {дымка} 6/6 180 м +18.9 +18.3 96
штиль 0 1100 м слаб. дождь {туман} 10/10 30 м +18.3 +18.0 98 0.1
штиль 0
{2}
1400 м в посл. час дождь {ливн. дождь} 10/10 60 м +18.2 +18.0 99 0.2
Ю 1
{5}
1700 м дымка {ливн. дождь, дождь} ?/? +17.6 +17.4 99
Ю 1
{4}
5000 м в посл. час туман {ливн. дождь, дождь} 9/9 30 м +16.6 +16.4 99
Ю 1
{4}
8000 м слаб. дождь 9/9 1500 м +16.2 +16.0 99 0.1
Ю 1
{3}
4000 м в посл. час дождь {ливн. дождь} 10/10 60 м +16.1 +15.9 99 0.0
штиль 0
{2}
1000 м туман {ливн. дождь, дождь} ?/? +16.2 +16.0 99
штиль 0
{2}
300 м туман {ливн. дождь, дождь} ?/? +16.2 +16.0 99
штиль 0
{2}
200 м туман {ливн. дождь, дождь} ?/? +16.3 +16.0 98
штиль 0
{2}
200 м туман {ливн. дождь, дождь} ?/? +16.3 +16.1 99
Ю 1
{3}
800 м туман {ливн. дождь, дождь} ?/? +16.5 +16.3 99 +16.1
Ю 1
{3}
6000 м в посл. час туман 10/10 60 м +17.6 +17.4 99
ЮЗ 1
{3}
9000 м слаб. дождь {туман} 10/10 210 м +18.1 +17.1 94 0.1
ЮЗ 2
{5}
27 км в посл. час дождь {ливн. дождь} 9/9 450 м +19.3 +16.8 85
ЮЗ 2
{5}
26 км {ливн. дождь, дождь} 9/9 450 м +19.1 +16.5 85
ЮЗ 2
{5}
20 км {ливн. дождь, дождь} 4/4 500 м +20.1 +15.9 77
ЮЗ 2
{5}
21 км {ливн. дождь, дождь} 3/3 700 м +20.6 +15.2 71
ЮЗ 2
{4}
22 км слаб. ливневой дождь 6/6 660 м +20.4 +14.5 69 0.0
Ю 1
{4}
23 км в посл. час дождь {ливн. дождь, метель} 5/5 900 м +21.1 +14.4 66 0.0
штиль 0
{3}
23 км {ливн. дождь, метель} 9/9 1500 м +20.3 +15.1 72
ЮЗ 1
{3}
35 км в посл. час дождь {ливн. дождь} 9/9 1500 м +20.8 +15.1 70 0.0
ЮЗ 1
{3}
35 км {ливн. дождь, дождь} 3/3 1500 м +19.4 +13.9 70
штиль 0
{3}
30 км в посл. час дождь {ливн. дождь} 3/0 +18.7 +14.6 77 +22.1 0.2
штиль 0
{2}
18 км 9/9 1500 м +17.2 +15.4 89
ЮЗ 1
{2}
15 км в посл. час дождь {ливн. дождь, метель} 9/9 800 м +16.2 +15.2 94 0.2
штиль 0
{2}
8000 м дымка {ливн. дождь} 1/1 660 м +14.9 +14.4 97
ЮЗ 1
{2}
10 км дымка {ливн. дождь} 9/0 +15.0 +14.7 98
штиль 0
{2}
5000 м дымка {ливн. дождь} 10/0 +14.8 +14.5 98
штиль 0
{2}
7000 м дымка {ливн. дождь} 10/0 +14.9 +14.7 99
штиль 0
{1}
4100 м дымка 6/6 150 м +14.4 +14.3 99
штиль 0
{2}
3700 м в посл. час туман 9/9 150 м +14.9 +14.7 99
Ю 1
{4}
4900 м слаб. дождь {туман} 9/9 270 м +15.0 +14.8 99 0.6
штиль 0
{2}
3000 м слаб. ливневой дождь 10/10 90 м +14.9 +14.7 99
ЮВ 1
{2}
4900 м слаб. ливневой дождь 10/10 150 м +15.6 +15.3 98 0.2
Ю 1
{3}
2500 м сильн. ливневой дождь 10/10 60 м +15.2 +15.0 99 +14.1 1
Ю 1
{4}
3400 м сильн. дождь {ливн. дождь} 10/10 60 м +14.3 +14.1 99 6
Ю 2
{4}
11 км слаб. дождь 10/10 60 м +14.4 +14.2 99 1
Ю 1
{5}
11 км слаб. дождь 10/10 60 м +14.5 +14.3 99 1
З 1
{5}
13 км дождь {ливн. дождь} 10/10 120 м +14.2 +14.0 99 2
Ю 1
{3}
35 км в посл. час дождь {ливн. дождь} 9/9 150 м +15.4 +14.6 95
ЮЗ 3
{7}
1200 м слаб. ливневой дождь 9/9 360 м +12.6 +10.4 86 3
Ю 1
{3}
30 км в посл. час дождь {ливн. дождь, метель} 6/0 2000 м +14.6 +13.7 94 0.3
З 1
{5}
23 км слаб. ливневой дождь {метель} 10/10 150 м +13.3 +12.8 97 3
З 3
{7}
1300 м сильн. ливневой дождь {метель} 10/10 120 м +11.3 +10.7 96 6
штиль 0
{3}
30 км в посл. час дождь {ливн. дождь, метель} 10/0 2000 м +11.9 +11.7 99 0.7
Ю 1
{3}
35 км в посл. час дождь {ливн. дождь, метель} 10/0 +12.3 +12.0 98 0.1
ЮЗ 1
{5}
13 км ливневой дождь {метель} 10/10 720 м +12.1 +11.8 98 +11.2 +16.9 1
Ю 1
{5}
13 км в посл. час дождь {ливн. дождь, метель} 9/9 90 м +12.0 +11.8 99
Ю 1
{3}
3000 м сильн. ливневой дождь {метель} 10/10 60 м +12.2 +12.0 99 2
Ю 1
{4}
11 км в посл. час дождь {ливн. дождь, метель} 10/10 60 м +12.4 +12.2 99 4
Ю 1
{2}
8000 м слаб. дождь 10/10 30 м +12.4 +12.2 99 0.9
ЮЗ 1
{4}
14 км в посл. час дождь {ливн. дождь} 9/9 60 м +12.4 +12.2 99 0.0
штиль 0
{4}
10 км в посл. час дождь {ливн. дождь} 9/9 30 м +12.1 +11.9 99 0.1
штиль 0
{1}
900 м слаб. ливневой дождь ?/? +12.1 +11.9 99 0.2
СЗ 2
{5}
600 м туман {ливн. дождь} ?/? +11.8 +11.6 99
З 2
{4}
600 м туман {ливн. дождь} ?/? +11.5 +11.3 99
З 2
{4}
600 м туман {ливн. дождь} ?/? +11.7 +11.5 99
З 2
{4}
7000 м в посл. час туман {ливн. дождь} 9/9 60 м +12.1 +11.8 98
З 2
{3}
16 км {ливн. дождь, туман} 9/9 60 м +12.6 +12.4 99 +11.4 +12.6
З 1
{3}
18 км слаб. дождь 10/10 90 м +13.2 +13.0 99 0.1
З 2
{5}
26 км в посл. час дождь {метель} 9/9 150 м +14.7 +14.4 98
З 3
{8}
40 км {дождь, метель} 9/9 330 м +16.9 +15.5 91
З 3
{7}
40 км {дождь, метель} 9/9 480 м +17.1 +14.3 84
З 3
{8}
30 км {дождь, метель} 5/5 630 м +19.8 +14.5 71
З 3
{11}
35 км {дождь, метель} 6/6 840 м +20.4 +14.1 67
З 4
{11}
40 км 5/5 960 м +21.3 +13.6 61
З 4
{10}
30 км 4/4 1020 м +21.9 +13.6 59
З 4
{9}
30 км 5/5 1020 м +22.6 +14.1 59
З 4
{10}
30 км ясно +21.8 +13.2 58
З 3
{9}
29 км 3/0 +21.2 +14.3 65
ЮЗ 3
{8}
18 км 1/1 420 м +18.7 +15.0 79 +12.5 +22.8
ЮЗ 3
{8}
17 км 9/9 330 м +17.2 +14.8 86
ЮЗ 3
{10}
16 км 10/10 300 м +16.8 +14.5 86
З 4
{8}
16 км 10/10 300 м +16.5 +14.6 89
ЮЗ 3
{8}
18 км 9/9 300 м +16.1 +14.4 90
ЮЗ 3
{8}
18 км 10/10 300 м +15.8 +14.2 90
ЮЗ 3
{8}
19 км 10/10 360 м +15.7 +13.7 88
ЮЗ 3
{8}
30 км 10/10 660 м +15.5 +12.6 83
ЮЗ 3
{8}
40 км 9/9 480 м +15.3 +12.6 84
ЮЗ 2
{7}
30 км 9/9 700 м +15.2 +12.8 86
ЮЗ 1
{5}
20 км 10/10 300 м +15.2 +13.6 90
Местоположение метеостанции Кроппефял-Гранан (Швеция): широта 58.60 долгота 12.20 высота над уровнем моря 174 м.
В архиве по умолчанию представлена погода в Кроппефял-Гранане за последнюю неделю. Архивные данные за месяц целиком и за предыдущие месяцы, начиная с января 2011 года, Вы можете получить, выбрав интересующий диапазон дат из раскрывающегося списка и нажав кнопку "Найти!".
*Определитесь, кто Вы:
Внимание! Время в таблицах - всемирное. Для получения местного времени необходимо прибавить поправку, которая равна 1 ч.
Смотрите также архив погоды в соседних городах и на ближайших метеорологических станциях:
Партнеры нашего сайта:      
Пояснения к столбцам:
  • Ветер - указаны скорость ветра в м/с - средняя за 10 мин, порывы в срок и между сроками (в фигурных скобках) и направление, откуда дует ветер: С - северный,
  • СВ - северо-восточный, В - восточный, ЮВ - юго-восточный, Ю - южный, ЮЗ - юго-западный, З - западный, СЗ - северо-западный.
  • Видимость - горизонтальная дальность видимости в метрах или километрах. При видимости от 1 до 10 км при отсутствии осадков обычно наблюдается дымка, при ухудшении видимости до 1 км и менее - туман. В сухую погоду видимость может ухудшаться дымом, пылью или мглою.
  • Явления - указаны атмосферные явления, наблюдавшиеся в срок или в последний час перед сроком; фигурными скобками обозначены явления, наблюдавшиеся между сроками (за 1-3 часа до срока); квадратными скобками обозначены град или гололедные отложения с указанием их диаметра в мм.
  • Облачность - указаны через наклонную черту общая и нижняя облачность в баллах и высота нижней границы облаков в метрах; квадратными скобками обозначены формы облаков: Ci - перистые, Cs - перисто-слоистые, Cc - перисто-кучевые, Ac - высококучевые, As - высокослоистые, Sc - слоисто-кучевые, Ns - слоисто-дождевые, Cu - кучевые, Cb - кучево-дождевые. Подробнее классификацию облаков см. в Атласе облаков (PDF).
  • T - Температура воздуха - температура, измеренная на высоте 2 м над землей.
  • Td - Температура точки росы - температура, при понижении до которой содержащийся в воздухе водяной пар достигнет насыщения.
  • f - Относительная влажность воздуха - влажноcть воздуха, измеренная на высоте 2 м над землей.
  • Te - Эффективная температура - температура, которую ощущает одетый по сезону человек в тени. Характеристика душности погоды. При расчете учитывается влияние влажности воздуха и скорости ветра на теплоощущения человека.
  • Tes - Эффективная температура на солнце - температура, которую ощущает человек, с поправкой на солнечный нагрев. Характеристика знойности погоды. Зависит от высоты солнца над горизонтом, облачности и скорости ветра. Ночью, в пасмурную погоду, а также при ветре 12 м/с и более поправка равна нулю.
  • P - Атмосферное давление - приведенное к уровню моря атмосферное давление.
  • Po - Атмосферное давление - измеренное на уровне метеостанции атмосферное давление.
  • Tmin - Минимальная температура - минимум температуры воздуха на высоте 2 м над землей.
  • Tmax - Максимальная температура - максимум температуры воздуха на высоте 2 м над землей.
  • R - Количество осадков - Количество выпавших осадков за период времени, мм. При наведении курсора мыши на число - период времени, за который выпало указанное количество осадков.
  • R24 - Количество осадков - Количество выпавших осадков за 24 часа, мм.
  • S - Снежный покров - Высота снежного покрова, см. При наведении курсора мыши на число - состояние снежного покрова и степень покрытия местности в баллах.